Yellowstone Natl Park, WY

1:18 PM MST on January 24, 2017 (GMT -0700)
Yellowstone

Weather History for KP60 - February, 2014

Change the Weather History Date:

Sunday, February 16, 2014

  Actual Average Record
Temperature  
Mean Temperature 17 °F 15 °F  
Max Temperature 33 °F 27 °F 37 °F (2011)
Min Temperature 1 °F 2 °F -28 °F (2005)
Degree Days  
Heating Degree Days 48 50  
Month to date heating degree days 878 823  
Since 1 July heating degree days 7466 7354  
Cooling Degree Days 0 0  
Month to date cooling degree days 0 0  
Year to date cooling degree days 0 0  
Moisture  
Dew Point 20 °F    
Average Humidity 80    
Maximum Humidity 92    
Minimum Humidity 67    
Precipitation  
Precipitation 0.46 in 0.05 in 0.46 in (2014)
Month to date precipitation 1.93 0.81  
Year to date precipitation 3.84 2.92  
Sea Level Pressure  
Sea Level Pressure 29.82 in    
Wind  
Wind Speed 7 mph (West)    
Max Wind Speed 17 mph    
Max Gust Speed 33 mph    
T = Trace of Precipitation, MM = Missing Value Source: NWS Daily Summary

Daily Weather History Graph

Daily Weather History Graph

Search for Another Location

Airport or City:

Trip Planner

Search our weather history database for the weather conditions in past years. The results will help you decide how hot, cold, wet, or windy it might be!

Date:

Astronomy

Feb. 16, 2014 Rise Set
Actual Time 7:20 AM MST 5:51 PM MST
Civil Twilight 6:50 AM MST 6:21 PM MST
Nautical Twilight 6:16 AM MST 6:55 PM MST
Astronomical Twilight 5:42 AM MST 7:29 PM MST
Moon 7:58 PM MST (2/16) 7:46 AM MST (2/16)
Length of Visible Light 11h 31m
Length of Day
10h 31m
Full, 97% of the Moon is Illuminated
Feb 16
Full
Feb 22
Last Quarter
Mar 1
New
Mar 8
First Quarter
Mar 16
Full

Hourly Weather History & Observations

Time (MST) Temp. Windchill Dew Point Humidity Pressure Visibility Wind Dir Wind Speed Gust Speed Precip Events Conditions
12:56 AM 30.9 °F - 27.0 °F 85% 29.81 in - Calm Calm - N/A   Unknown
1:56 AM 33.1 °F 28.7 °F 28.9 °F 85% 29.75 in - Variable 4.6 mph - N/A   Unknown
2:56 AM 32.0 °F - 30.9 °F 96% 29.75 in - Calm Calm - 0.03 in   Unknown
3:56 AM 32.0 °F - 30.9 °F 96% 29.75 in - Calm Calm - 0.04 in   Unknown
4:56 AM 32.0 °F 28.7 °F 28.9 °F 88% 29.70 in - Variable 3.5 mph - N/A   Unknown
5:56 AM 33.1 °F 26.1 °F 28.0 °F 82% 29.67 in - West 8.1 mph - 0.02 in   Unknown
6:56 AM 30.9 °F 25.2 °F 28.0 °F 89% 29.67 in - Variable 5.8 mph - 0.01 in   Unknown
7:56 AM 32.0 °F 23.0 °F 27.0 °F 82% 29.65 in - WSW 11.5 mph 23.0 mph 0.01 in   Unknown
8:56 AM 32.0 °F 24.2 °F 26.1 °F 79% 29.65 in - West 9.2 mph 24.2 mph N/A   Unknown
9:56 AM 32.0 °F 24.2 °F 26.1 °F 79% 29.62 in - West 9.2 mph 27.6 mph 0.01 in   Unknown
10:56 AM 32.0 °F 24.2 °F 26.1 °F 79% 29.61 in - WSW 9.2 mph 20.7 mph 0.01 in   Unknown
11:56 AM 30.0 °F 23.2 °F 28.0 °F 92% 29.61 in - Variable 6.9 mph - 0.04 in   Unknown
12:56 PM 28.0 °F 18.1 °F 21.9 °F 78% 29.66 in - West 11.5 mph 23.0 mph 0.12 in   Unknown
1:56 PM 26.1 °F 16.2 °F 23.0 °F 88% 29.69 in - West 10.4 mph 21.9 mph 0.04 in   Unknown
2:56 PM 23.0 °F 13.9 °F 19.0 °F 85% 29.77 in - West 8.1 mph - 0.12 in   Unknown
3:56 PM 24.1 °F 13.7 °F 15.1 °F 69% 29.80 in - West 10.4 mph 25.3 mph 0.01 in   Unknown
4:56 PM 21.9 °F 11.7 °F 12.0 °F 66% 29.86 in - West 9.2 mph - N/A   Unknown
5:56 PM 19.9 °F 7.3 °F 10.9 °F 68% 29.91 in - West 12.7 mph 21.9 mph N/A   Unknown
6:56 PM 18.0 °F 6.1 °F 9.0 °F 68% 29.98 in - West 10.4 mph 23.0 mph N/A   Unknown
7:56 PM 15.1 °F 9.4 °F 8.1 °F 74% 30.06 in - NE 3.5 mph - N/A   Unknown
8:56 PM 7.0 °F -1.7 °F 3.9 °F 87% 30.14 in - West 4.6 mph - N/A   Unknown
9:56 PM 3.0 °F -6.4 °F -0.0 °F 87% 30.18 in - WNW 4.6 mph - N/A   Unknown
10:56 PM 14.0 °F 2.0 °F 10.0 °F 84% 30.12 in - West 9.2 mph 19.6 mph N/A   Unknown
11:56 PM 16.0 °F - 10.9 °F 81% 30.15 in - Calm Calm - N/A   Unknown